This is the latest recevied weather packets stored in our database for station/object K5NAN. If no packets are shown the sender has not sent any weather packets the latest 1 day(s).
| Time | Temp. | Humidity | Pressure | Rain* | Wind** | Luminosity | Snow |
|---|---|---|---|---|---|---|---|
| 1778037620 | 18.89° C | 80% | 1006.9 hPa | 0 mm | 2.24 m/s, 347° | 0 W/m² | - |
| 1778037318 | 19.44° C | 80% | 1006.9 hPa | 0 mm | 4.02 m/s, 355° | 0 W/m² | - |
| 1778037015 | 19.44° C | 81% | 1006.9 hPa | 0 mm | 1.34 m/s, 299° | 0 W/m² | - |
| 1778036713 | 19.44° C | 80% | 1006.7 hPa | 0 mm | 2.68 m/s, 328° | 0 W/m² | - |
| 1778036410 | 20° C | 80% | 1006.5 hPa | 0 mm | 2.68 m/s, 327° | 0 W/m² | - |
| 1778036107 | 20° C | 81% | 1006 hPa | 0 mm | 1.79 m/s, 34° | 0 W/m² | - |
| 1778035803 | 20° C | 81% | 1006 hPa | 0 mm | 2.24 m/s, 315° | 0 W/m² | - |
| 1778035500 | 20° C | 81% | 1005.7 hPa | 0 mm | 1.34 m/s, 326° | 0 W/m² | - |
| 1778035195 | 20.56° C | 80% | 1005.7 hPa | 0 mm | 2.68 m/s, 320° | 0 W/m² | - |
| 1778034893 | 20.56° C | 80% | 1005.6 hPa | 0 mm | 2.68 m/s, 336° | 0 W/m² | - |
| 1778034589 | 20.56° C | 82% | 1005.6 hPa | 0 mm | 2.24 m/s, 328° | 0 W/m² | - |
| 1778034287 | 21.11° C | 82% | 1005.2 hPa | 0 mm | 0.45 m/s, 304° | 0 W/m² | - |
| 1778033985 | 21.11° C | 82% | 1005 hPa | 0 mm | 0.89 m/s, 32° | 0 W/m² | - |
| 1778033682 | 21.67° C | 81% | 1005.2 hPa | 0 mm | 0.89 m/s, 320° | 0 W/m² | - |
| 1778033379 | 21.67° C | 81% | 1005.3 hPa | 0 mm | 1.34 m/s, 9° | 0 W/m² | - |
| 1778033077 | 21.67° C | 81% | 1005 hPa | 0 mm | 0.89 m/s, 340° | 0 W/m² | - |
| 1778032774 | 21.67° C | 81% | 1005.4 hPa | 0 mm | 1.34 m/s, 316° | 0 W/m² | - |
| 1778032471 | 22.22° C | 80% | 1004.6 hPa | 0 mm | 1.34 m/s, 354° | 0 W/m² | - |
| 1778032168 | 22.22° C | 80% | 1004.8 hPa | 0 mm | 0.89 m/s, 333° | 0 W/m² | - |
| 1778031865 | 22.22° C | 81% | 1004.5 hPa | 0 mm | 0.89 m/s, 329° | 0 W/m² | - |
| 1778031561 | 22.22° C | 82% | 1005.1 hPa | 0 mm | 0.89 m/s, 305° | 0 W/m² | - |
| 1778031260 | 22.78° C | 81% | 1005.2 hPa | 0 mm | 0.89 m/s, 244° | 0 W/m² | - |
| 1778030955 | 22.78° C | 80% | 1004.7 hPa | 0 mm | 0.45 m/s, 317° | 0 W/m² | - |
| 1778030652 | 22.78° C | 80% | 1004.5 hPa | 0 mm | 0 m/s | 0 W/m² | - |
| 1778030349 | 22.78° C | 79% | 1004.5 hPa | 0 mm | 0.45 m/s, 265° | 0 W/m² | - |
* Rain latest hour (hover to see other rain measurements)
** Current wind speed in m/s (hover to see current wind gust speed)